Location: Beutels
(47.8767°N, 9.8584°E)
Time: 17:14:33
(UTC+00:00)

NOSS 3-1 (A) - Pass Details

Date: 19 May 2025
Orbit: 667 x 1541 km, 63.4° (Epoch: 12 June)

Event Time Altitude Azimuth Distance (km) Brightness Sun altitude
Exits shadow 22:37:13 - 245° (WSW) 2,819 5.8 -21.6°
Reaches altitude 10° 22:38:47 10° 250° (WSW) 2,243 5.3 -21.6°
Maximum altitude 22:43:39 44° 323° (NW) 1,124 4.2 -21.7°
Drops below altitude 10° 22:49:31 10° 35° (NE) 2,698 6.4 -21.9°
Sets 22:52:30 0° 42° (NE) 3,796 7.2 -21.9°
